SL-8 DEB, 21936

Orbit data source: Space-Track

SL-8 DEB, 21936 is space debris in LEO originally from a launch on Tue, 12 Feb 1991 UTC launched from the Plesetsk Missile And Space Complex (PKMTR). Debris objects in space refer to the collection of defunct objects orbiting the Earth. Examples of debris include non-operational satellites, rocket bodies, and fragments generated from explosions, collisions, or faulty payload assembly.

Loading next visibility...
Identifier
21936, 1991-009CD
Orbit
LEO
Country
Flag of CISCIS
Related business
Manufacturer
Unknown
Mission
Spacecraft
Bus & Motor
Unknown
Mass
Unknown
Launch date (UTC)
1991-02-12 (35 years ago)
Launch vehicle
Unknown
Launch site
Plesetsk Missile And Space Complex (PKMTR)
Object type
Payload
Rocket body
Debris
Shape & HBR
Unknown shape, 0.1 m
Radar Cross Section
Medium (>0.1 m² and <1 m²)

Expand to show TLE details & history
Last TLE update: 19 hours ago

TLE from 19 hours ago
0 SL-8 DEB
1 21936U 91009CD  26171.11128176  .00000110  00000-0  13665-2 0  9999
2 21936  74.0654  58.5024 0263038 193.0944 320.7714 12.01229382509104
Epoch: 2026-06-20T02:40Z
TLE epoch observation values (Epoch: 2026-06-20T02:40:14.744Z)
Latitude
26.96231°
Longitude
-78.19949°
Altitude
1,516.303 km
Speed
7.18 km/s
True Right ascension
15h 20m 46s
True Declination
26° 50' 13"
Sunlit
Object was in daylight at epoch
Visualization orbit readout
Latitude
Unknown
Longitude
Unknown
Altitude
Unknown
Speed
Unknown
Apparent Right ascension
Unknown
Apparent Declination
Unknown
Sunlit
N/A
Visualization observer readout
Local Sidereal Time
08:46:29
Azimuth
Unknown
Elevation
Unknown
Doppler factor
Unknown
Orbital elements
Apogee altitude
1,885.03 km
Perigee altitude
1,461.466 km
Semi-major axis
8,051.385 km
Eccentricity
0.0263
Inclination
74.0654°
RAAN
58.5024°
Arg. of periapsis
193.0944°
True anomaly
318.81579°
Mean anomaly
320.7714°
Eccentric anomaly
319.7986°
Mean motion
3.00426 °/min
Orbital period
119.83 mins
BSTAR
0.0013665
Loading maneuver chart data...
Computing Atmospheric mass density...
Loading historical data...
Loading historical data...
Loading historical data...
Loading historical data...
Loading historical data...
Loading historical data...
Loading historical data...

Documentation

Showing up to 5 results
|